User: anonymous
Location: Trondheim
(63.4170°N, 10.4170°E)
Time: 14:06:55
(UTC+02:00)
Language:

Iridium 82 - Orbit

View from above orbital plane
View from above orbital plane
View from above satellite
View from above satellite

Ground track
Ground track

The orbit data is extracted from the following two-line orbital elements,

1 25467U 98051A   14263.48383028  .00000040  00000-0  72569-5 0   707
2 25467 086.3918 080.3684 0001784 105.4449 254.6944 14.34212591843187
Epoch (UTC): 20 September 2014 11:36:42
Eccentricity: 0.0001784
inclination: 86.3918°
perigee height: 776 km
apogee height: 779 km
right ascension of ascending node: 80.3684°
argument of perigee: 105.4449°
revolutions per day: 14.34212591
mean anomaly at epoch: 254.6944°
orbit number at epoch: 84318

The dashed part of the orbit path shows where the satellite is in the earth's shadow,  

DLR